Temperature
18 18 18 18 17 17 17 16 16 16 15 15 14 14 13 13 13 13 12 12 12 12 12 11 11 11 12 12 12 12 12 12 12 13 13 12 11 11 11 11 11 12 12
19 19 18 18 18 17 17 17 16 16 15 15 14 14 14 13 13 13 13 12 12 12 12 12 12 12 11 12 11 12 12 11 11 12 12 12 11 11 11 11 11 12 12
19 19 19 18 18 18 17 17 16 16 15 15 15 15 14 14 14 13 13 13 12 12 12 12 12 12 12 12 11 12 12 12 11 11 12 12 11 11 11 11 11 11 12
19 19 19 19 18 18 17 17 17 16 16 15 15 15 15 14 14 14 13 13 13 13 12 12 12 12 12 12 12 11 11 11 11 11 12 12 12 11 11 11 12 12 11
19 19 19 19 18 18 18 17 17 16 16 16 15 15 15 15 14 14 14 13 13 13 13 13 12 12 12 12 12 12 11 11 11 12 12 12 12 12 12 12 12 11 12
19 19 19 19 18 18 18 17 17 17 16 16 15 15 15 15 15 15 15 14 13 13 13 13 13 13 13 13 13 12 12 11 11 11 12 12 11 11 11 11 11 11 11
19 19 19 19 18 18 17 17 17 17 16 16 16 15 15 15 15 15 15 14 14 13 13 13 13 13 12 12 12 12 12 12 12 11 11 11 11 11 10 10 10 10 10
19 19 19 18 18 18 17 17 17 16 16 16 16 15 15 15 15 15 15 14 14 14 13 13 13 13 12 12 12 12 12 11 11 11 11 11 11 10 10 10 10 10 10
18 18 18 18 18 17 17 17 17 16 16 16 15 15 15 15 15 15 15 14 14 14 13 13 13 13 13 12 12 12 11 11 11 11 11 11 11 11 10 10 10 10 10
17 17 17 17 17 17 17 17 16 16 16 15 15 15 15 15 15 15 14 14 13 13 13 13 13 13 13 12 12 12 11 11 11 11 11 11 11 11 10 10 9 10 10
16 16 16 16 16 16 16 16 16 15 15 15 14 14 14 14 14 14 14 13 13 13 13 13 13 13 13 12 12 12 12 11 11 11 11 10 10 10 10 10 10 9 10
15 15 16 16 16 15 15 15 15 15 14 14 14 14 14 13 13 13 13 13 13 12 12 12 13 12 12 12 12 12 12 11 11 11 11 11 11 11 11 10 10 9 9
15 15 15 15 15 15 14 14 14 14 14 13 13 13 13 13 13 13 13 12 12 12 12 12 12 12 12 11 11 11 11 11 10 11 11 11 11 11 11 10 10 9 9
14 14 14 14 14 14 14 13 13 13 13 13 13 13 13 12 12 12 11 11 11 11 11 11 11 11 11 11 11 11 11 11 11 11 11 11 11 11 10 10 10 10 9
13 13 13 13 13 13 12 12 12 12 12 12 12 12 11 11 11 11 11 10 10 10 10 10 10 11 11 11 11 11 11 11 10 10 11 11 11 11 10 10 10 10 9
12 12 12 12 12 12 12 12 12 11 11 11 11 11 11 10 10 10 10 10 10 10 10 10 10 11 11 11 11 11 11 11 10 10 10 10 10 10 10 10 10 9 9
11 11 11 11 12 11 11 11 11 11 11 11 10 10 10 10 9 9 9 9 10 10 9 9 10 10 10 10 10 11 11 11 11 10 10 10 10 10 10 10 10 9 9
11 11 11 11 11 11 11 11 11 11 10 10 10 10 9 9 9 9 9 9 9 9 9 9 10 10 10 10 10 10 10 10 10 10 10 9 9 9 9 9 9 9 9
10 10 10 10 10 10 10 10 10 10 10 10 10 10 9 9 9 8 8 8 8 9 9 9 9 9 9 9 9 9 9 9 9 9 9 9 9 9 9 9 9 9 8
10 10 10 10 10 10 10 10 10 10 9 9 9 9 9 8 8 8 8 8 8 8 8 8 8 8 8 8 9 9 9 9 9 9 9 9 9 9 9 9 9 8 8
10 10 9 10 10 9 9 9 9 9 9 9 8 8 7 7 7 8 7 7 7 7 8 7 7 8 8 8 8 8 8 8 8 8 8 8 8 8 8 8 8 8 8
9 10 10 9 9 9 8 8 8 8 8 8 8 8 7 7 7 7 7 7 7 7 7 7 7 7 7 7 7 7 7 8 8 8 8 8 8 8 8 8 8 8 8
9 9 9 9 8 8 8 8 8 8 7 7 7 7 7 6 6 6 6 6 6 6 6 6 6 7 7 7 7 7 7 7 7 7 7 7 7 7 8 8 7 7 7
8 8 8 8 8 7 7 7 7 7 6 6 6 6 5 5 5 5 5 5 5 5 6 6 6 6 6 6 6 6 6 7 7 7 7 7 7 7 7 7 7 7 7
8 7 7 7 7 6 6 6 6 5 5 5 5 4 4 4 4 4 4 4 5 5 5 5 5 5 5 6 6 6 6 6 6 6 6 6 6 7 7 7 7 7 6
7 6 6 6 6 5 5 5 5 4 4 4 4 3 3 3 3 3 3 4 4 4 4 4 4 5 5 5 5 6 6 6 6 6 6 6 6 6 6 6 6 6 6
Wind_Speed
16 15 14 13 12 12 10 10 10 9 9 9 9 8 8 8 8 7 7 6 7 7 7 7 7 7 6 6 6 6 7 7 9 9 8 7 7 9 9 10 11 11 11
16 15 14 13 13 12 12 11 11 10 10 10 9 9 9 9 9 9 9 8 8 8 8 8 8 7 8 8 7 8 7 7 9 11 10 9 9 9 9 10 11 12 12
16 15 15 14 14 13 12 12 11 11 10 10 10 10 10 10 10 10 9 9 9 9 9 9 9 9 9 8 8 9 8 8 8 10 11 9 9 9 9 10 11 10 13
16 16 15 15 14 14 13 12 12 11 11 11 11 11 11 11 11 10 10 10 10 10 10 10 10 11 11 10 9 10 9 10 10 10 11 10 9 9 8 10 10 9 9
15 15 15 14 13 13 13 12 12 12 12 11 11 11 11 11 11 11 10 11 11 11 11 12 12 11 10 10 10 10 9 10 10 10 10 10 9 8 9 9 10 9 10
14 14 13 13 13 13 12 12 12 12 11 11 12 12 12 11 9 9 11 11 11 12 12 12 12 12 14 15 15 14 13 13 12 12 11 11 11 10 9 9 10 11 11
14 13 13 13 13 13 12 12 12 11 11 11 12 12 13 11 10 12 13 12 13 13 13 13 12 12 12 13 15 18 18 19 18 15 15 15 13 11 11 12 11 12 12
13 12 12 12 12 12 12 12 11 10 10 11 12 12 12 12 12 14 13 14 14 15 15 15 15 14 14 13 14 15 15 16 17 17 16 16 15 12 11 12 13 13 14
11 11 11 12 11 11 12 11 10 10 10 11 11 12 12 12 12 14 13 12 13 16 16 16 16 16 15 13 15 16 17 16 16 19 19 17 16 14 12 12 13 13 14
7 8 8 8 9 10 10 10 9 9 10 10 11 11 12 13 11 13 13 11 13 14 14 15 17 18 16 15 16 17 18 17 15 13 15 17 18 18 18 16 15 14 14
4 5 5 6 7 7 7 7 7 8 8 9 10 10 11 12 11 13 14 11 13 14 14 14 13 16 19 18 18 17 18 16 15 15 14 15 14 14 14 16 16 15 15
3 3 3 3 4 4 5 5 6 6 8 9 9 10 10 10 10 11 14 16 14 14 14 14 13 9 14 17 16 18 17 14 15 15 15 15 14 14 13 14 15 16 16
3 3 2 2 2 2 3 5 5 6 7 8 8 9 9 8 8 12 14 15 16 14 14 16 15 12 12 14 18 19 16 15 15 16 16 16 15 14 13 11 14 15 17
4 3 2 1 1 1 2 3 4 5 6 7 8 9 9 8 8 7 7 9 12 13 14 15 16 18 17 17 15 14 15 16 17 17 17 16 14 13 13 13 13 13 14
5 4 2 2 1 1 1 2 4 4 4 6 8 9 9 10 7 8 9 11 11 11 12 13 14 15 15 15 15 15 15 16 17 17 17 15 15 14 14 13 13 13 14
5 4 3 2 2 2 2 2 3 5 3 6 8 9 9 9 11 12 13 14 15 13 11 15 16 17 17 17 16 15 15 15 16 16 16 16 15 15 14 13 13 14 14
5 5 4 4 4 4 5 5 6 5 8 11 12 12 12 12 13 15 15 15 16 12 12 15 16 16 16 16 15 15 15 14 13 14 15 15 15 14 14 13 13 13 14
4 4 3 4 5 5 6 6 7 8 8 8 8 10 11 13 14 15 14 12 13 11 13 15 15 15 15 15 15 15 14 13 13 13 14 14 14 14 14 14 13 14 14
5 5 5 6 6 6 7 7 8 9 9 10 10 8 7 10 14 15 11 10 12 13 12 13 13 14 14 14 13 13 13 13 13 13 13 14 14 13 13 13 13 14 14
3 3 5 7 7 7 7 8 9 9 10 10 11 11 10 12 13 12 11 11 12 12 12 12 12 13 12 12 12 12 12 12 13 13 13 13 13 12 13 14 13 13 13
7 5 5 7 7 8 8 9 10 10 11 11 12 11 9 13 14 14 13 13 12 13 13 12 12 12 11 10 10 11 12 11 11 12 12 12 12 12 12 12 12 13 12
8 9 8 8 9 9 9 10 11 11 12 13 12 12 9 11 12 13 13 13 13 12 12 11 11 11 10 10 10 10 11 11 10 10 10 10 10 10 11 11 11 11 12
9 10 10 9 9 9 10 10 10 11 12 12 12 12 12 12 12 13 13 13 12 12 12 11 11 10 10 9 9 10 10 10 9 8 9 9 10 10 10 11 13 13 12
10 10 10 10 9 10 10 11 11 11 12 12 12 12 12 11 12 13 14 13 12 12 11 10 10 12 13 10 8 8 7 6 7 7 9 9 10 9 9 10 11 12 12
10 10 10 10 10 10 10 11 11 11 12 11 11 11 11 12 12 12 12 12 13 12 12 11 10 10 11 11 10 7 4 5 6 8 8 8 10 10 10 10 10 11 12
9 9 9 9 9 9 9 10 10 11 11 11 11 11 11 11 12 12 12 12 12 11 11 10 10 11 11 9 8 6 4 4 5 7 8 8 10 10 10 9 12 12 13
Wind_Direction
198 197 199 197 197 196 196 196 196 198 196 201 202 203 205 206 207 215 232 222 228 234 235 236 242 259 262 263 256 259 262 267 277 284 288 286 280 282 291 285 278 272 264
197 196 198 197 197 198 199 199 197 199 201 204 206 208 211 212 212 217 227 228 231 236 238 239 244 244 244 257 262 263 264 266 271 281 286 285 279 277 276 279 277 272 274
196 196 197 198 198 201 202 199 199 202 206 209 211 214 216 217 218 221 227 232 235 238 240 241 244 246 247 250 252 260 264 262 264 274 279 283 280 276 278 273 271 267 271
196 196 197 199 198 199 198 197 199 202 206 211 215 219 221 221 223 225 227 231 236 239 241 243 245 245 246 250 250 251 258 266 264 266 272 276 274 273 269 273 274 262 263
197 199 200 198 197 197 197 198 200 204 210 213 218 222 223 225 226 226 231 233 235 241 242 243 244 244 252 252 257 257 256 259 265 267 270 274 275 278 276 278 280 282 271
197 201 198 193 192 194 196 198 201 206 213 215 220 225 226 230 206 209 234 245 242 243 246 246 246 235 233 230 241 251 257 257 262 269 271 273 276 276 276 277 279 278 278
197 197 193 191 193 194 196 199 203 206 211 217 224 228 232 233 201 205 219 242 249 249 249 249 252 249 232 241 232 228 238 242 245 255 265 269 274 272 275 273 270 274 279
195 196 193 192 193 193 198 203 206 211 216 222 228 232 236 234 205 210 215 234 249 252 250 250 251 255 249 244 249 247 245 241 235 237 249 257 262 268 266 266 273 271 267
194 195 194 192 192 193 200 206 209 214 220 225 229 235 239 240 212 212 217 242 245 249 251 251 250 252 244 228 245 253 255 254 244 234 240 249 260 262 259 262 263 264 267
188 188 188 190 194 198 204 209 212 218 228 234 235 236 240 244 222 208 213 245 252 255 253 251 245 242 245 220 239 249 254 256 259 251 232 238 246 245 233 238 251 258 264
167 171 177 185 200 206 207 209 216 222 232 240 246 245 245 247 235 212 210 240 256 261 263 261 257 223 224 224 231 246 252 257 262 260 256 249 244 243 238 231 235 246 256
122 143 158 174 204 208 210 215 221 233 237 241 246 254 253 247 242 231 218 228 250 263 266 268 270 245 223 225 230 241 244 247 255 257 255 253 249 246 243 239 236 239 246
93 108 123 144 180 220 224 226 229 232 249 255 256 260 263 261 247 225 226 230 236 249 264 269 275 272 253 245 238 235 235 241 246 249 250 251 252 252 251 245 242 241 245
76 74 84 108 163 199 241 248 256 257 260 268 272 274 276 273 272 273 266 258 245 250 263 266 255 250 248 256 258 239 236 242 243 246 249 251 252 250 245 245 246 245 246
65 64 62 68 50 285 267 286 280 289 303 291 291 292 290 288 309 339 308 292 292 294 297 278 271 266 259 253 250 247 243 240 238 243 248 250 250 248 248 246 246 248 250
50 40 29 17 5 328 315 298 230 253 258 252 257 272 289 289 300 298 290 281 276 276 279 271 269 267 264 262 260 256 249 245 244 243 244 245 246 247 248 245 243 244 248
36 23 9 2 353 339 328 317 310 276 236 239 242 243 250 271 278 279 279 279 271 256 258 263 265 266 266 264 262 260 258 254 248 245 245 245 245 246 246 246 245 244 246
16 26 356 347 340 331 324 316 310 310 308 301 264 234 239 253 263 267 270 278 276 255 260 265 269 270 269 268 267 265 262 259 252 248 247 247 245 244 244 243 243 245 248
352 351 349 335 322 320 317 312 309 308 306 306 307 294 258 264 258 256 253 275 285 286 282 279 278 277 275 273 270 267 265 263 260 255 251 248 245 243 243 244 245 243 246
324 320 308 313 313 313 312 310 309 307 304 303 303 306 313 311 305 299 290 291 289 289 288 285 283 281 278 274 271 268 264 261 260 256 253 249 245 243 243 245 247 248 245
323 318 286 298 310 315 314 310 308 305 303 303 304 310 318 304 300 301 301 297 294 294 292 289 287 284 279 275 272 267 264 262 260 258 255 250 245 243 244 246 248 249 250
314 314 315 316 316 313 313 308 304 303 305 305 306 306 297 295 301 303 303 301 298 295 293 292 289 286 283 279 275 271 266 263 261 261 262 256 250 248 249 249 249 249 250
305 311 312 312 310 310 301 303 307 309 308 307 308 309 310 309 308 307 305 304 303 299 294 288 286 285 285 283 279 275 272 271 272 274 272 267 260 256 252 250 251 254 252
310 312 312 313 313 312 312 311 310 310 311 311 312 311 312 313 311 310 309 307 306 303 300 297 292 288 287 284 280 280 286 293 290 280 276 273 269 263 256 255 257 258 259
314 317 315 314 314 313 312 312 313 315 315 315 313 313 314 314 314 315 316 315 313 311 310 310 305 300 297 294 292 297 330 329 305 296 281 273 270 267 264 263 263 264 262
319 318 317 318 319 318 316 316 316 317 318 318 317 317 317 317 317 318 318 318 318 317 315 312 309 310 310 307 319 341 339 308 293 288 281 274 271 267 264 261 262 260 263
Height
1533 1536 1539 1541 1543 1545 1547 1548 1549 1550 1551 1552 1553 1553 1554 1555 1555 1555 1556 1557 1556 1557 1557 1557 1556 1556 1557 1557 1556 1556 1556 1555 1554 1553 1552 1551 1548 1546 1546 1545 1544 1543 1543
1529 1532 1535 1537 1540 1542 1543 1545 1546 1547 1548 1549 1550 1550 1551 1552 1552 1552 1553 1554 1554 1554 1554 1554 1554 1554 1553 1553 1553 1553 1552 1551 1550 1549 1548 1547 1545 1543 1541 1539 1539 1539 1538
1525 1528 1530 1533 1535 1537 1539 1541 1542 1543 1545 1546 1546 1547 1548 1549 1549 1549 1550 1550 1550 1551 1551 1550 1550 1550 1549 1549 1548 1549 1548 1548 1546 1545 1544 1543 1541 1540 1538 1536 1535 1533 1533
1521 1523 1525 1528 1530 1533 1535 1537 1538 1539 1541 1542 1543 1544 1544 1545 1545 1546 1546 1546 1547 1547 1546 1546 1546 1546 1545 1545 1544 1543 1543 1543 1542 1541 1539 1538 1537 1535 1534 1532 1531 1530 1529
1516 1518 1521 1523 1526 1528 1530 1532 1533 1535 1537 1538 1539 1540 1540 1541 1542 1542 1543 1543 1542 1542 1542 1542 1541 1541 1540 1540 1540 1540 1539 1538 1538 1537 1535 1534 1533 1532 1530 1529 1527 1526 1524
1511 1513 1516 1518 1521 1523 1525 1527 1529 1530 1532 1533 1534 1536 1536 1537 1538 1537 1538 1538 1538 1537 1537 1537 1536 1535 1534 1534 1534 1533 1533 1533 1532 1531 1530 1529 1528 1527 1525 1524 1523 1521 1520
1506 1509 1511 1513 1515 1518 1520 1522 1524 1525 1527 1528 1530 1531 1531 1532 1532 1532 1532 1532 1532 1532 1531 1531 1531 1531 1529 1528 1527 1526 1526 1525 1525 1524 1523 1522 1522 1521 1520 1518 1517 1516 1514
1501 1503 1506 1508 1510 1513 1516 1518 1519 1521 1522 1523 1525 1525 1526 1526 1526 1527 1527 1526 1526 1525 1525 1524 1524 1523 1523 1522 1522 1521 1519 1518 1518 1517 1515 1514 1515 1514 1513 1512 1511 1509 1507
1497 1499 1501 1503 1506 1508 1511 1513 1515 1516 1517 1518 1519 1520 1520 1520 1520 1521 1520 1519 1519 1518 1518 1517 1517 1516 1516 1515 1515 1513 1512 1512 1511 1509 1508 1507 1507 1506 1506 1505 1504 1504 1501
1493 1495 1497 1500 1502 1504 1506 1508 1510 1511 1512 1513 1513 1513 1513 1514 1514 1514 1513 1513 1512 1512 1511 1510 1509 1508 1508 1507 1507 1506 1505 1504 1504 1503 1501 1499 1498 1497 1497 1496 1496 1496 1495
1491 1492 1494 1496 1499 1501 1502 1503 1505 1506 1507 1507 1508 1507 1507 1507 1507 1507 1506 1505 1505 1504 1504 1503 1502 1501 1500 1499 1498 1497 1496 1497 1496 1495 1494 1492 1491 1489 1488 1488 1487 1487 1487
1489 1490 1492 1493 1495 1497 1498 1499 1500 1500 1501 1501 1501 1501 1501 1501 1500 1499 1499 1498 1497 1496 1495 1494 1494 1493 1491 1490 1489 1488 1488 1488 1487 1486 1485 1484 1483 1482 1481 1481 1479 1478 1477
1488 1489 1490 1491 1492 1493 1494 1495 1495 1495 1496 1497 1496 1496 1496 1495 1494 1492 1491 1490 1489 1487 1486 1485 1484 1483 1481 1480 1479 1478 1478 1477 1476 1476 1475 1474 1474 1474 1473 1472 1471 1469 1468
1487 1487 1488 1488 1489 1490 1491 1491 1492 1492 1492 1492 1491 1490 1490 1489 1488 1486 1485 1483 1481 1479 1477 1475 1474 1472 1470 1469 1468 1467 1466 1466 1466 1465 1465 1465 1465 1464 1463 1463 1462 1462 1460
1486 1487 1487 1487 1487 1488 1487 1487 1488 1487 1487 1486 1485 1484 1483 1482 1481 1479 1477 1475 1474 1472 1469 1466 1465 1463 1461 1459 1458 1457 1456 1455 1454 1454 1454 1454 1454 1454 1454 1454 1453 1453 1452
1487 1487 1487 1487 1486 1486 1485 1485 1483 1483 1481 1480 1478 1477 1475 1474 1472 1470 1468 1466 1464 1462 1459 1456 1455 1454 1452 1450 1448 1447 1446 1445 1444 1444 1443 1443 1444 1444 1444 1444 1444 1443 1442
1487 1486 1486 1486 1485 1484 1483 1482 1480 1479 1476 1474 1472 1470 1468 1466 1464 1462 1459 1457 1454 1452 1449 1447 1445 1443 1442 1440 1438 1437 1436 1435 1434 1434 1433 1433 1433 1434 1434 1434 1434 1434 1433
1488 1486 1485 1484 1483 1482 1480 1479 1477 1475 1473 1470 1468 1465 1462 1459 1457 1454 1451 1448 1445 1443 1440 1438 1436 1434 1432 1430 1429 1427 1426 1425 1425 1424 1424 1424 1424 1424 1424 1424 1424 1424 1424
1487 1486 1484 1483 1481 1479 1478 1476 1473 1471 1468 1466 1463 1461 1457 1454 1451 1448 1444 1442 1439 1436 1433 1430 1428 1425 1423 1421 1420 1418 1417 1416 1415 1415 1415 1414 1415 1415 1415 1415 1415 1415 1415
1485 1483 1482 1480 1478 1476 1474 1472 1469 1467 1464 1461 1459 1456 1452 1449 1446 1442 1439 1436 1432 1429 1426 1423 1420 1417 1415 1413 1411 1409 1408 1407 1406 1406 1406 1406 1406 1406 1406 1406 1407 1407 1407
1484 1481 1479 1477 1475 1472 1470 1468 1465 1463 1460 1457 1454 1451 1447 1444 1440 1436 1433 1429 1425 1422 1418 1415 1413 1410 1408 1405 1403 1402 1400 1399 1399 1398 1398 1398 1398 1398 1398 1398 1398 1399 1399
1481 1478 1476 1474 1471 1469 1466 1464 1461 1458 1455 1452 1448 1445 1441 1438 1434 1430 1426 1422 1418 1415 1412 1409 1406 1403 1401 1399 1397 1395 1394 1393 1392 1391 1391 1390 1390 1390 1390 1390 1390 1391 1391
1477 1474 1472 1469 1467 1464 1462 1459 1456 1453 1450 1447 1443 1439 1436 1432 1428 1423 1419 1415 1412 1408 1405 1402 1399 1397 1395 1393 1391 1389 1388 1387 1386 1385 1385 1384 1383 1383 1383 1383 1383 1383 1383
1473 1470 1468 1465 1463 1460 1457 1454 1451 1448 1445 1441 1438 1434 1430 1426 1422 1418 1413 1409 1405 1402 1399 1396 1393 1391 1389 1387 1385 1384 1382 1381 1380 1379 1379 1378 1377 1377 1377 1377 1377 1377 1376
1468 1466 1463 1461 1458 1455 1453 1450 1447 1443 1440 1436 1433 1429 1425 1421 1417 1412 1408 1404 1400 1396 1393 1390 1388 1385 1383 1381 1380 1378 1377 1376 1375 1374 1373 1373 1372 1371 1370 1370 1370 1369 1369
1464 1461 1459 1456 1454 1451 1448 1445 1442 1439 1435 1432 1428 1424 1420 1416 1412 1408 1404 1400 1396 1392 1389 1386 1383 1381 1379 1376 1375 1373 1372 1371 1370 1369 1368 1367 1366 1366 1365 1364 1363 1363 1362